Simultaneous Nadir Overpasses (SNOs) Predictions

Prediction of SNOs between AURA and NPP Satellite Orbit:

Table of predicted SNOs for the next 14.0 days since TLE Epoch: 6/18/2021
Index Date (AURA) Time (AURA) Lat,Lon (AURA) SZA (AURA ) Date (NPP) Time (NPP) Lat,Lon (NPP) SZA (NPP ) Distance(km) Time Diff (sec)
1 06/20/2021 19:08:25 -79.28, -31.79 110.24 06/20/2021 19:07:42 -79.28, -31.87 110.20 1.72 43
2 06/20/2021 19:57:43 79.59, 137.92 69.31 06/20/2021 19:58:17 79.59, 137.97 69.28 1.10 34
3 06/23/2021 11:24:51 -79.41, 84.91 110.38 06/23/2021 11:24:36 -79.40, 84.82 110.35 2.00 15
4 06/23/2021 12:14:10 79.67,-105.62 69.23 06/23/2021 12:15:12 79.67,-105.58 69.18 1.09 62
5 06/26/2021 02:51:55 79.28, 32.35 69.89 06/26/2021 02:50:50 79.29, 32.44 69.92 1.97 65
6 06/26/2021 03:41:17 -79.49,-158.67 110.41 06/26/2021 03:41:30 -79.48,-158.75 110.40 1.78 13
7 06/28/2021 19:08:21 79.40, 148.97 69.86 06/28/2021 19:07:44 79.41, 149.10 69.87 2.82 37
8 06/28/2021 19:57:43 -79.60, -42.00 110.44 06/28/2021 19:58:24 -79.59, -42.05 110.46 1.10 41
9 07/01/2021 11:24:50 79.39, -95.20 70.06 07/01/2021 11:24:42 79.38, -95.30 70.09 2.26 8



Historial Predications of SNOs between AURA and NPP
